Content
SEND FEEDBACK

Daily
Averages
Monthly
Summary
United States of America

HILLSIDE, NEW JERSEY


Home > North America > United States > New Jersey
Elevation: 40 feet     Latitude: 40 40N     Longitude: 074 14W

WEATHER
 
SELECT A DAY
Number of Records: 193,321;   Date Range: 1/1/95 - 11/26/14
 
SHARE

PRINT THIS DATA

[ ← Previous Day ]
WEATHER ALMANAC - SEPTEMBER 25, 2013
[ Next Day → ]
[ °C ]   °F
Weather ElementAverageHighLow
Temperature63.1 °F73.9 °F (1:51 pm)52 °F (6:51 am)
Dewpoint44.6 °F53.1 °F (9:51 pm)39.9 °F (11:51 am)
Humidity53 %72 % (11:51 pm)32 % (1:51 pm)
Barometer29.93 in29.97 in (8:51 am)29.88 in (3:51 pm)
Wind Speed3.7 mph8.1 mph (1:51 am)
Weather ElementAverage
Visibility10 mi
Wind DirectionESE (97.4 °)

Weather ElementTotal
Precipitation---
Heating Degree Days2.1 (Base 65)
Growing Degree Days13 (Base 50)
Averaged from 23 records on September 25, 2013
WEATHER CONDITIONS BREAKOUT
WIND DIRECTION BREAKOUT
WEATHER BY HOUR - SEPTEMBER 25, 2013
[ °C ]   °F
Local TimeTemperatureDewpointHumidityBarometerVisibilityWind DirectionWind SpeedGust SpeedPrecipitationEventsConditions
1:51 AM53.1 °F44.1 °F71 %29.96 in10.0 miNNE (20°)8.1 mphClear
2:51 AM55.0 °F43.0 °F64 %29.95 in10.0 miNorth (360°)8.1 mphClear
3:51 AM53.1 °F43.0 °F69 %29.95 in10.0 miNNE (20°)3.5 mphClear
4:51 AM53.1 °F43.0 °F69 %29.95 in10.0 miCalmClear
5:51 AM53.1 °F43.0 °F69 %29.95 in10.0 miNNW (330°)5.8 mphClear
6:51 AM52.0 °F43.0 °F71 %29.96 in10.0 miNorth (10°)3.5 mphPartly Cloudy
7:51 AM55.9 °F44.1 °F64 %29.96 in10.0 miWest (280°)3.5 mphPartly Cloudy
8:51 AM60.1 °F43.0 °F53 %29.97 in10.0 miCalmScattered Clouds
9:51 AM62.1 °F43.0 °F50 %29.97 in10.0 miNNE (30°)4.6 mphMostly Cloudy
10:51 AM64.9 °F42.1 °F43 %29.96 in10.0 miCalmMostly Cloudy
11:51 AM66.9 °F39.9 °F37 %29.95 in10.0 miCalmMostly Cloudy
12:51 PM69.1 °F42.1 °F38 %29.94 in10.0 miVariable3.5 mphMostly Cloudy
1:51 PM73.9 °F42.1 °F32 %29.91 in10.0 miWest (270°)6.9 mphMostly Cloudy
2:51 PM72.0 °F42.1 °F34 %29.90 in10.0 miVariable3.5 mphMostly Cloudy
3:51 PM73.9 °F44.1 °F34 %29.88 in10.0 miVariable3.5 mphMostly Cloudy
4:51 PM72.0 °F44.1 °F37 %29.88 in10.0 miNW (310°)4.6 mphMostly Cloudy
5:51 PM72.0 °F44.1 °F37 %29.88 in10.0 miVariable5.8 mphMostly Cloudy
6:51 PM69.1 °F46.0 °F44 %29.89 in10.0 miNE (40°)4.6 mphScattered Clouds
7:51 PM69.1 °F46.0 °F44 %29.90 in10.0 miNNW (340°)8.1 mphScattered Clouds
8:51 PM64.0 °F48.0 °F56 %29.92 in10.0 miNE (40°)4.6 mphScattered Clouds
9:51 PM64.9 °F53.1 °F65 %29.93 in10.0 miCalmScattered Clouds
10:51 PM62.1 °F51.1 °F67 %29.93 in10.0 miCalmScattered Clouds
11:51 PM61.0 °F52.0 °F72 %29.94 in10.0 miSouth (190°)3.5 mphPartly Cloudy
Hourly data recorded from KEWR, located miles away from Hillside, New Jersey







STORIES FROM OUR PARTNERS